Time,TemperatureF,DewpointF,PressureIn,WindDirection,WindDirectionDegrees,WindSpeedMPH,WindSpeedGustMPH,Humidity,HourlyPrecipIn,Conditions,Clouds,dailyrainin,SolarRadiationWatts/m^2,SoftwareType,DateUTC
2013-04-29 00:11:00,48.0,32.0,-100.00,SE,145,0.0,4.0,53,0.00,,,0.00,0.000000,,2013-04-29 07:11:00,
2013-04-29 00:21:00,48.0,32.0,-100.00,SE,145,0.0,4.0,53,0.00,,,0.00,0.000000,,2013-04-29 07:21:00,
2013-04-29 01:11:00,47.0,33.0,-100.00,SSE,150,0.0,0.0,59,0.00,,,0.00,0.000000,,2013-04-29 08:11:00,
2013-04-29 01:21:00,47.0,33.0,-100.00,SSE,150,0.0,0.0,59,0.00,,,0.00,0.000000,,2013-04-29 08:21:00,
2013-04-29 01:31:00,47.0,33.0,-100.00,SSE,150,0.0,0.0,59,0.00,,,0.00,0.000000,,2013-04-29 08:31:00,
2013-04-29 01:41:00,47.0,33.0,-100.00,SSE,150,0.0,0.0,59,0.00,,,0.00,0.000000,,2013-04-29 08:41:00,
2013-04-29 02:12:00,45.0,32.0,-100.00,SSE,155,0.0,0.0,61,0.00,,,0.00,0.000000,,2013-04-29 09:12:00,
2013-04-29 02:21:00,45.0,32.0,-100.00,SSE,155,0.0,0.0,61,0.00,,,0.00,0.000000,,2013-04-29 09:21:00,
2013-04-29 02:32:00,45.0,32.0,-100.00,SSE,155,0.0,0.0,61,0.00,,,0.00,0.000000,,2013-04-29 09:32:00,
2013-04-29 02:42:00,45.0,32.0,-100.00,SSE,155,0.0,0.0,61,0.00,,,0.00,0.000000,,2013-04-29 09:42:00,
2013-04-29 03:12:00,43.0,33.0,-100.00,SE,145,0.0,0.0,67,0.00,,,0.00,0.000000,,2013-04-29 10:12:00,
2013-04-29 03:23:00,43.0,33.0,-100.00,SE,145,0.0,0.0,67,0.00,,,0.00,0.000000,,2013-04-29 10:23:00,
2013-04-29 03:32:00,43.0,33.0,-100.00,SE,145,0.0,0.0,67,0.00,,,0.00,0.000000,,2013-04-29 10:32:00,
2013-04-29 03:42:00,43.0,33.0,-100.00,SE,145,0.0,0.0,67,0.00,,,0.00,0.000000,,2013-04-29 10:42:00,
2013-04-29 04:12:00,42.0,33.0,-100.00,SE,142,0.0,3.0,69,0.00,,,0.00,0.000000,,2013-04-29 11:12:00,
2013-04-29 04:21:00,42.0,33.0,-100.00,SE,142,0.0,3.0,69,0.00,,,0.00,0.000000,,2013-04-29 11:21:00,
2013-04-29 04:32:00,42.0,33.0,-100.00,SE,142,0.0,3.0,69,0.00,,,0.00,0.000000,,2013-04-29 11:32:00,
2013-04-29 04:41:00,42.0,33.0,-100.00,SE,142,0.0,3.0,69,0.00,,,0.00,0.000000,,2013-04-29 11:41:00,
2013-04-29 05:12:00,41.0,32.0,-100.00,SE,140,0.0,0.0,70,0.00,,,0.00,0.000000,,2013-04-29 12:12:00,
2013-04-29 05:21:00,41.0,32.0,-100.00,SE,140,0.0,0.0,70,0.00,,,0.00,0.000000,,2013-04-29 12:21:00,
2013-04-29 05:31:00,41.0,32.0,-100.00,SE,140,0.0,0.0,70,0.00,,,0.00,0.000000,,2013-04-29 12:31:00,
2013-04-29 05:41:00,41.0,32.0,-100.00,SE,140,0.0,0.0,70,0.00,,,0.00,0.000000,,2013-04-29 12:41:00,
2013-04-29 06:11:00,37.0,30.0,-100.00,SSE,151,0.0,3.0,77,0.00,,,0.00,0.000000,,2013-04-29 13:11:00,
2013-04-29 06:21:00,37.0,30.0,-100.00,SSE,151,0.0,3.0,77,0.00,,,0.00,0.000000,,2013-04-29 13:21:00,
2013-04-29 07:11:00,39.0,33.0,-100.00,SE,138,0.0,0.0,78,0.00,,,0.00,9.000000,,2013-04-29 14:11:00,
2013-04-29 07:21:00,39.0,33.0,-100.00,SE,138,0.0,0.0,78,0.00,,,0.00,9.000000,,2013-04-29 14:21:00,
2013-04-29 07:32:00,39.0,33.0,-100.00,SE,138,0.0,0.0,78,0.00,,,0.00,9.000000,,2013-04-29 14:32:00,
2013-04-29 07:42:00,39.0,33.0,-100.00,SE,138,0.0,0.0,78,0.00,,,0.00,9.000000,,2013-04-29 14:42:00,
2013-04-29 08:12:00,45.0,33.0,-100.00,SE,133,0.0,3.0,62,-99.99,,,0.00,43.000000,,2013-04-29 15:12:00,
2013-04-29 08:21:00,45.0,33.0,-100.00,SE,133,0.0,3.0,62,-99.99,,,0.00,43.000000,,2013-04-29 15:21:00,
2013-04-29 08:33:00,45.0,33.0,-100.00,SE,133,0.0,3.0,62,-99.99,,,0.00,43.000000,,2013-04-29 15:33:00,
2013-04-29 09:12:00,59.0,33.0,-100.00,SE,144,0.0,0.0,38,-99.99,,,0.00,390.000000,,2013-04-29 16:12:00,
2013-04-29 09:23:00,59.0,33.0,-100.00,SE,144,0.0,0.0,38,-99.99,,,0.00,390.000000,,2013-04-29 16:23:00,
2013-04-29 09:32:00,59.0,33.0,-100.00,SE,144,0.0,0.0,38,-99.99,,,0.00,390.000000,,2013-04-29 16:32:00,
2013-04-29 09:42:00,59.0,33.0,-100.00,SE,144,0.0,0.0,38,-99.99,,,0.00,390.000000,,2013-04-29 16:42:00,
2013-04-29 10:12:00,64.0,33.0,-100.00,East,97,3.0,7.0,31,0.00,,,0.00,640.000000,,2013-04-29 17:12:00,
2013-04-29 10:22:00,64.0,33.0,-100.00,East,97,3.0,7.0,31,0.00,,,0.00,640.000000,,2013-04-29 17:22:00,
2013-04-29 10:32:00,64.0,33.0,-100.00,East,97,3.0,7.0,31,0.00,,,0.00,640.000000,,2013-04-29 17:32:00,
2013-04-29 10:42:00,64.0,33.0,-100.00,East,97,3.0,7.0,31,0.00,,,0.00,640.000000,,2013-04-29 17:42:00,
2013-04-29 11:13:00,69.0,31.0,-100.00,North,10,2.0,7.0,24,0.00,,,0.00,829.000000,,2013-04-29 18:13:00,
2013-04-29 11:22:00,69.0,31.0,-100.00,North,10,2.0,7.0,24,0.00,,,0.00,829.000000,,2013-04-29 18:22:00,
2013-04-29 11:31:00,69.0,31.0,-100.00,North,10,2.0,7.0,24,0.00,,,0.00,829.000000,,2013-04-29 18:31:00,
2013-04-29 11:41:00,69.0,31.0,-100.00,North,10,2.0,7.0,24,0.00,,,0.00,829.000000,,2013-04-29 18:41:00,
2013-04-29 12:11:00,77.0,29.0,-100.00,WSW,241,5.0,12.0,17,0.00,,,0.00,970.000000,,2013-04-29 19:11:00,
2013-04-29 12:21:00,77.0,29.0,-100.00,WSW,241,5.0,12.0,17,0.00,,,0.00,970.000000,,2013-04-29 19:21:00,
2013-04-29 12:41:00,77.0,29.0,-100.00,WSW,241,5.0,12.0,17,0.00,,,0.00,970.000000,,2013-04-29 19:41:00,
2013-04-29 13:11:00,76.0,29.0,-100.00,SW,235,7.0,16.0,18,0.00,,,0.00,1062.000000,,2013-04-29 20:11:00,
2013-04-29 13:21:00,76.0,29.0,-100.00,SW,235,7.0,16.0,18,0.00,,,0.00,1062.000000,,2013-04-29 20:21:00,
2013-04-29 13:32:00,76.0,29.0,-100.00,SW,235,7.0,16.0,18,0.00,,,0.00,1062.000000,,2013-04-29 20:32:00,
2013-04-29 13:42:00,76.0,29.0,-100.00,SW,235,7.0,16.0,18,0.00,,,0.00,1062.000000,,2013-04-29 20:42:00,
2013-04-29 14:11:00,77.0,32.0,-100.00,SSW,206,8.0,19.0,19,0.00,,,0.00,1066.000000,,2013-04-29 21:11:00,
2013-04-29 14:21:00,77.0,32.0,-100.00,SSW,206,8.0,19.0,19,0.00,,,0.00,1066.000000,,2013-04-29 21:21:00,
2013-04-29 14:33:00,77.0,32.0,-100.00,SSW,206,8.0,19.0,19,0.00,,,0.00,1066.000000,,2013-04-29 21:33:00,
2013-04-29 14:42:00,77.0,32.0,-100.00,SSW,206,8.0,19.0,19,0.00,,,0.00,1066.000000,,2013-04-29 21:42:00,
2013-04-29 15:13:00,77.0,29.0,-100.00,SSW,211,9.0,20.0,17,0.00,,,0.00,1002.000000,,2013-04-29 22:13:00,
2013-04-29 15:23:00,77.0,29.0,-100.00,SSW,211,9.0,20.0,17,0.00,,,0.00,1002.000000,,2013-04-29 22:23:00,
2013-04-29 15:32:00,77.0,29.0,-100.00,SSW,211,9.0,20.0,17,0.00,,,0.00,1002.000000,,2013-04-29 22:32:00,
2013-04-29 15:42:00,77.0,29.0,-100.00,SSW,211,9.0,20.0,17,0.00,,,0.00,1002.000000,,2013-04-29 22:42:00,
2013-04-29 16:11:00,74.0,29.0,-100.00,WSW,247,8.0,19.0,19,0.00,,,0.00,819.000000,,2013-04-29 23:11:00,
2013-04-29 16:22:00,74.0,29.0,-100.00,WSW,247,8.0,19.0,19,0.00,,,0.00,819.000000,,2013-04-29 23:22:00,
2013-04-29 16:32:00,74.0,29.0,-100.00,WSW,247,8.0,19.0,19,0.00,,,0.00,819.000000,,2013-04-29 23:32:00,
2013-04-29 16:41:00,74.0,29.0,-100.00,WSW,247,8.0,19.0,19,0.00,,,0.00,819.000000,,2013-04-29 23:41:00,
2013-04-29 17:11:00,73.0,28.0,-100.00,SW,229,9.0,18.0,19,0.00,,,0.00,493.000000,,2013-04-30 00:11:00,
2013-04-29 17:21:00,73.0,28.0,-100.00,SW,229,9.0,18.0,19,0.00,,,0.00,493.000000,,2013-04-30 00:21:00,
2013-04-29 17:32:00,73.0,28.0,-100.00,SW,229,9.0,18.0,19,0.00,,,0.00,493.000000,,2013-04-30 00:32:00,
2013-04-29 17:41:00,73.0,28.0,-100.00,SW,229,9.0,18.0,19,0.00,,,0.00,493.000000,,2013-04-30 00:41:00,
2013-04-29 18:11:00,74.0,30.0,-100.00,SW,227,6.0,18.0,20,0.00,,,0.00,504.000000,,2013-04-30 01:11:00,
2013-04-29 18:21:00,74.0,30.0,-100.00,SW,227,6.0,18.0,20,0.00,,,0.00,504.000000,,2013-04-30 01:21:00,
2013-04-29 18:32:00,74.0,30.0,-100.00,SW,227,6.0,18.0,20,0.00,,,0.00,504.000000,,2013-04-30 01:32:00,
2013-04-29 18:41:00,74.0,30.0,-100.00,SW,227,6.0,18.0,20,0.00,,,0.00,504.000000,,2013-04-30 01:41:00,